Погода в Рацибуже

Польша     50°05′24″N   18°13′04″E
темп.,
°C
ветер,
м/с
пор.,
м/с
влажн.,
%
обл.,
%
осадки,
мм/ч
давл.,
гПа
погр.,
м
20 июня, вс
вс2023:00+20всв118176 0.2 101414
02:00+19ююв22880 0.2 101320
05:00+18юв22900 0.0 101226
08:00+23ю22700 0.0 1013304
11:00+28юв21540 0.0 1012988
14:00+31в12432 0.0 10112103
17:00+31в32432 0.0 10101638
20:00+24вюв496423 0.0 1009223
21 июня, пн
пн2123:00+21вюв3678100 0.0 1010126
02:00+19вюв1185100 0.0 100914
05:00+18ююв1186100 0.0 100813
08:00+24ююв2267100 0.0 1008265
11:00+29юз2350100 0.0 10081361
14:00+31з2340100 0.0 10072222
17:00+31з224133 0.0 10061777
20:00+25зюз347198 0.2 100796
22 июня, вт
вт2223:00+19ссз51096100 8.3 1010384
02:00+18зюз119699 10.5 100939
05:00+17зсз2298100 1.6 100933
08:00+20ссз3490100 3.6 1011303
11:00+22ссз238395 0.8 1011539
14:00+26с336298 0.8 10111118
17:00+28ссз445896 0.0 10101223
20:00+23ссз4785100 2.6 1012161
23 июня, ср
ср2323:00+19ссз369629 2.1 1013146
02:00+18ссз369936 3.7 1013156
05:00+18ссз259994 0.0 1014133
08:00+20ссз3493100 0.0 1015358
11:00+22с3384100 0.0 1016586
14:00+25сз437374 0.1 1016845
17:00+26сз437046 0.0 1016917
20:00+23сз36860 0.3 1016215
24 июня, чт
чт2423:00+19сз34950 1.3 101786
02:00+18сз22971 1.3 101721
05:00+17ссз229816 0.0 101631
08:00+21с228849 0.0 1016322
11:00+26всв22681 0.0 1015756
14:00+31зсз12522 0.3 10131123
17:00+28зсз236656 0.8 1012199
20:00+20с5109283 5.4 1012221